Location: Newark
(42.8481°N, 0.4872°E)
Time: 09:14:37
(UTC+00:00)

Vanguard 1 - Pass Details

Date: 04 November 2020
Orbit: 650 x 3833 km, 34.2° (Epoch: 26 November)

Event Time Altitude Azimuth Distance (km) Brightness Sun altitude
Rises 13:59:47 0° 267° (W) 7,435 15.1 23.5°
Reaches altitude 10° 14:04:29 10° 265° (W) 6,644 15.0 23.0°
Maximum altitude 14:27:23 66° 191° (S) 3,945 13.8 20.2°
Drops below altitude 10° 14:46:23 10° 114° (ESE) 5,662 13.8 17.8°
Sets 14:50:00 0° 112° (ESE) 6,340 13.9 17.3°
